Location: Newark
(44.6768°N, 22.5302°E)
Time: 01:52:31
(UTC+00:00)

Max Valier Satellite - Pass Details

Date: 06 July 2022
Orbit: 474 x 491 km, 97.2° (Epoch: 07 August)

Event Time Altitude Azimuth Distance (km) Brightness Sun altitude
Rises 18:55:05 0° 195° (SSW) 2,553 ? -6.1°
Reaches altitude 10° 18:57:25 10° 209° (SSW) 1,680 ? -6.4°
Maximum altitude 19:00:25 24° 265° (W) 1,049 ? -6.8°
Drops below altitude 10° 19:03:27 10° 322° (NW) 1,697 ? -7.2°
Sets 19:05:49 0° 336° (NNW) 2,586 ? -7.6°
